Cloud_Cover
1 1 1 4 78 86 100 100 100 100 100 100 100 100 55 0 0 0 0 0 0 0 0 2 83 100 100 74 93 100 100 100 100 100 100 100 100 100 100 100 100 99 100 98 100 100 100
5 37 97 100 100 100 100 100 100 100 100 100 100 100 10 1 0 1 0 0 0 0 0 3 100 100 94 66 0 1 30 25 41 90 85 64 100 100 100 100 100 100 100 100 93 60 90
96 100 100 100 100 100 100 100 100 100 100 100 100 86 100 0 0 2 5 5 0 0 0 5 54 98 96 15 0 0 0 5 5 9 5 0 0 1 3 9 19 4 3 8 75 99 12
100 100 100 100 100 100 100 24 10 26 82 59 7 87 5 0 2 0 4 5 5 0 0 0 26 100 32 0 0 0 0 0 0 4 5 5 5 2 0 0 0 0 0 0 0 1 0
100 100 100 100 100 75 97 42 49 100 92 64 37 100 5 0 0 0 0 1 0 0 0 0 22 50 19 0 2 0 0 0 0 0 2 32 16 29 41 43 2 0 0 0 0 0 0
100 100 100 100 100 100 98 9 54 22 18 6 100 62 5 5 5 1 0 0 0 0 44 2 80 35 0 1 2 0 3 5 5 4 2 0 0 3 65 100 80 100 3 0 0 0 0
100 100 100 100 100 96 81 100 22 44 24 95 97 14 5 5 1 5 28 20 0 0 0 0 0 0 0 0 0 0 0 4 2 0 37 5 5 2 0 2 19 32 99 100 89 3 3
100 100 100 100 96 42 56 93 89 82 100 98 68 5 5 5 5 5 15 5 94 76 74 4 1 5 4 0 0 0 0 0 0 0 0 36 0 1 4 2 0 1 1 7 93 100 87
100 100 100 100 100 34 98 58 90 6 16 35 51 5 5 5 23 89 52 34 79 83 63 40 24 64 20 5 2 5 1 3 0 5 92 41 1 0 0 0 0 0 0 4 2 17 50
100 100 100 100 94 100 29 91 6 5 32 24 26 5 43 85 79 59 50 35 14 37 5 5 10 8 84 100 69 5 5 16 5 41 8 46 64 64 5 3 53 5 1 0 1 3 0
100 100 100 100 100 18 69 44 39 53 12 5 13 41 67 100 96 88 100 100 85 59 25 5 5 5 5 5 5 5 5 8 99 74 100 70 86 100 100 90 100 16 17 9 8 17 78
100 100 100 88 75 40 98 97 80 94 5 22 98 100 100 100 98 99 100 100 87 8 5 7 12 7 5 5 5 4 5 80 73 22 100 100 100 100 100 98 100 98 85 100 100 100 100
100 100 86 62 68 75 100 86 95 60 86 80 99 100 100 50 96 100 100 73 73 86 9 22 1 0 0 1 0 0 0 6 27 62 4 14 99 100 100 100 100 100 99 99 100 100 85
100 93 98 61 100 100 100 100 100 88 100 52 30 99 97 100 98 84 66 7 30 8 5 0 0 0 0 0 0 0 0 0 50 8 53 38 0 23 100 100 100 100 100 100 100 100 100
97 100 98 100 100 100 100 100 98 100 87 46 90 100 100 91 78 12 62 22 45 5 1 0 3 5 2 2 5 4 0 1 5 5 35 94 9 0 5 99 100 100 100 100 100 100 100
100 100 82 100 100 99 41 100 55 22 96 100 100 100 100 39 42 24 39 5 15 2 1 5 5 4 5 4 5 5 3 0 5 29 100 96 84 0 0 2 96 100 100 100 100 100 100
100 85 100 100 100 68 100 97 15 98 95 89 100 100 64 13 100 45 5 5 1 0 5 2 2 33 5 60 79 5 4 2 83 100 100 99 85 9 4 5 1 67 100 100 97 94 100
72 82 100 100 99 99 96 84 97 100 100 100 100 100 18 100 100 14 5 2 2 5 2 2 10 5 12 33 66 37 5 5 81 48 6 26 83 84 0 0 74 100 100 100 100 100 100
87 100 100 96 100 93 100 97 100 100 100 100 100 50 43 44 5 5 4 5 5 4 0 5 4 36 93 93 95 5 5 0 8 50 34 31 76 70 2 48 94 34 93 100 100 100 100
100 100 100 97 100 100 100 100 100 100 100 95 19 58 66 6 5 5 83 56 5 4 2 44 5 32 26 52 26 50 5 3 5 5 40 93 97 80 66 5 99 80 95 100 100 100 100
100 100 99 100 100 100 100 100 100 98 92 54 74 44 23 44 7 5 45 63 5 27 5 5 9 100 100 87 75 24 5 14 7 5 68 93 96 97 100 100 100 100 100 94 100 100 100
100 100 89 100 100 100 100 100 100 98 59 6 90 100 16 11 5 36 14 30 55 70 91 6 99 87 93 98 100 100 85 84 100 51 100 100 94 83 88 100 100 100 100 100 100 100 100
82 99 100 100 100 100 100 100 100 100 32 56 76 91 99 49 56 98 59 99 100 100 16 100 100 98 56 57 66 100 83 88 99 100 100 100 100 100 96 100 100 100 100 100 100 100 100
100 100 100 100 100 100 100 100 100 100 100 100 100 95 86 37 73 67 98 97 75 99 100 100 75 89 23 43 49 100 99 77 100 100 100 100 100 100 100 100 100 100 100 100 100 100 100
100 91 100 100 100 100 100 100 100 100 100 100 100 91 100 48 100 18 74 100 69 99 100 100 100 100 5 86 84 85 100 100 100 100 100 99 100 100 98 90 100 100 100 100 100 100 100
100 100 100 100 100 100 68 100 98 99 100 100 22 100 100 100 100 100 100 100 99 87 92 98 95 99 99 100 100 100 100 87 100 100 100 100 100 100 100 100 100 100 100 100 100 100 100
100 100 100 100 100 81 100 86 77 100 100 99 76 100 99 100 100 89 63 98 80 36 93 65 46 90 72 35 99 100 100 100 96 96 100 100 100 100 100 100 100 100 100 100 100 100 100
100 100 100 100 100 100 99 5 83 95 93 93 42 90 74 98 97 83 74 100 99 94 100 6 17 6 16 28 65 95 100 100 100 100 100 100 100 100 100 100 100 100 98 100 98 100 100
100 100 93 77 90 100 25 60 90 11 91 100 77 66 91 90 96 68 24 42 55 70 99 77 100 100 100 100 100 100 100 100 100 99 75 90 97 99 90 97 100 100 100 100 100 89 85